EW9592 Weather Reports


Display with metric or nautical units.
time (UTC)temp
F
wind
direction
speed
MPH
gust
MPH
rain 1hr
in
rain 24hr
in
rain mn
in
humidity
%
barometer
mb
20260831101510 69 149 0.0 0.0 0.00 0.00 0.00 92 1018.6
20260831100015 69 149 0.0 0.0 0.00 0.00 0.00 92 1018.4
20260831094525 69 149 0.0 0.0 0.00 0.00 0.00 92 1018.2
20260831093026 69 149 0.0 0.0 0.00 0.00 0.00 92 1018.2
20260831091507 69 150 0.0 0.0 0.00 0.00 0.00 92 1018.1
20260831090007 69 149 0.0 0.0 0.00 0.00 0.00 92 1018.0
20260831084512 69 149 0.0 0.0 0.00 0.00 0.00 92 1017.8
20260831083005 69 148 0.0 0.0 0.00 0.00 0.00 92 1017.9
20260831081508 69 148 0.0 0.0 0.00 0.00 0.00 92 1018.0
20260831080003 69 148 0.0 0.0 0.00 0.00 0.00 92 1017.7
20260831074503 69 148 0.0 0.0 0.00 0.00 0.00 92 1017.9
20260831073100 70 148 0.0 0.0 0.00 0.00 0.00 92 1017.9
20260831071558 70 148 0.0 0.0 0.00 0.00 0.00 92 1018.0
20260831070057 70 148 0.0 0.0 0.00 0.00 0.00 92 1018.1
20260831064555 70 149 0.0 0.0 0.00 0.00 0.00 91 1018.3
20260831063108 70 149 0.0 0.0 0.00 0.00 0.00 91 1018.4
20260831061554 70 149 0.0 0.0 0.00 0.00 0.00 91 1018.4
20260831060052 71 150 0.0 0.0 0.00 0.00 0.00 91 1018.4
20260831054551 71 149 0.0 0.0 0.00 0.00 0.00 91 1018.4
20260831053124 71 149 0.0 0.0 0.00 0.00 0.00 91 1018.3
20260831051548 71 149 0.0 0.0 0.00 0.00 0.00 91 1018.3
20260831050047 71 148 0.0 0.0 0.00 0.00 0.00 91 1018.4
20260831044636 71 149 0.0 0.0 0.00 0.00 0.00 91 1018.4
20260831043044 72 149 0.0 0.0 0.00 0.00 0.00 91 1018.5
20260831041549 72 150 0.0 0.0 0.00 0.00 0.00 91 1018.4
20260831040041 72 149 0.0 0.0 0.00 0.00 0.00 91 1018.3
20260831034540 72 149 0.0 0.0 0.00 0.00 0.00 91 1018.3
20260831033053 73 149 0.0 0.0 0.00 0.00 0.00 91 1018.3
20260831031542 73 149 0.0 0.0 0.00 0.00 0.00 91 1018.4
20260831030039 73 149 0.0 0.0 0.00 0.00 0.00 91 1018.5
20260831024538 73 149 0.0 0.0 0.00 0.00 0.00 91 1018.5
20260831023036 74 150 0.0 0.0 0.00 0.00 0.00 91 1018.4
20260831021536 74 148 0.0 0.0 0.00 0.00 0.00 91 1018.4
20260831020036 74 150 0.0 0.0 0.00 0.00 0.00 91 1018.2
20260831014535 74 149 0.0 0.0 0.00 0.00 0.00 91 1018.3
20260831013036 75 149 0.0 0.0 0.00 0.00 0.00 90 1018.1
20260831011533 75 149 0.0 0.0 0.00 0.00 0.00 90 1017.8
20260831010053 76 149 0.0 0.0 0.00 0.00 0.00 90 1017.7
20260831004532 76 149 0.0 0.0 0.00 0.00 0.00 90 1017.5
20260831003034 77 149 0.0 0.0 0.00 0.00 0.00 89 1017.3
20260831001531 78 149 0.0 0.0 0.00 0.00 0.00 89 1017.3
20260831000031 79 150 0.0 0.0 0.00 0.00 0.00 89 1017.4
20260830234530 79 150 0.0 0.0 0.00 0.00 0.00 88 1017.2
20260830233036 80 149 0.0 0.0 0.00 0.00 0.00 87 1017.3
20260830231528 81 149 0.0 0.0 0.00 0.00 0.00 86 1017.3
20260830230027 81 149 0.0 0.0 0.00 0.00 0.00 84 1017.2
20260830224527 82 149 0.0 0.0 0.00 0.00 0.00 82 1017.1
20260830223028 83 149 0.0 0.0 0.00 0.00 0.00 84 1017.1
20260830221524 83 149 0.0 0.0 0.00 0.00 0.00 83 1017.2
20260830220023 84 149 0.0 0.0 0.00 0.00 0.00 82 1017.4
20260830214522 84 149 0.0 0.0 0.00 0.00 0.00 82 1017.5
20260830213021 84 149 0.0 0.0 0.00 0.00 0.00 81 1017.8
20260830211518 85 149 0.0 0.0 0.00 0.00 0.00 80 1017.8
20260830210017 84 149 0.0 0.0 0.00 0.00 0.00 80 1018.0
20260830204533 84 149 0.0 0.0 0.00 0.00 0.00 77 1018.0
20260830203018 84 149 0.0 0.0 0.00 0.00 0.00 78 1018.1
20260830201512 85 149 0.0 0.0 0.00 0.00 0.00 73 1018.2
20260830200011 86 149 0.0 0.0 0.00 0.00 0.00 69 1018.4
20260830194510 88 149 0.0 1.0 0.00 0.00 0.00 66 1018.5
20260830193020 87 138 0.0 1.0 0.00 0.00 0.00 61 1018.6
20260830191520 88 1 0.0 2.0 0.00 0.00 0.00 63 1018.8
20260830190006 88 27 0.0 1.0 0.00 0.00 0.00 57 1019.1
20260830184505 87 200 0.0 2.0 0.00 0.00 0.00 64 1019.4
20260830183003 87 136 0.0 2.0 0.00 0.00 0.00 69 1019.7
20260830181502 87 262 1.0 6.0 0.00 0.00 0.00 65 1019.8
20260830180007 87 243 0.0 1.0 0.00 0.00 0.00 63 1019.9
20260830174615 87 108 0.0 2.0 0.00 0.00 0.00 61 1020.0
20260830173100 87 138 0.0 3.0 0.00 0.00 0.00 70 1020.1
20260830171600 87 114 0.0 3.0 0.00 0.00 0.00 67 1020.3
20260830170058 87 12 0.0 4.0 0.00 0.00 0.00 65 1020.4
20260830164600 87 141 0.0 3.0 0.00 0.00 0.00 68 1020.6
20260830163053 86 59 0.0 3.0 0.00 0.00 0.00 70 1020.6
20260830161608 85 149 1.0 3.0 0.00 0.00 0.00 71 1020.6
20260830160046 84 348 0.0 2.0 0.00 0.00 0.00 73 1020.7
20260830154542 82 239 0.0 3.0 0.00 0.00 0.00 77 1020.7
20260830153037 81 127 0.0 3.0 0.00 0.00 0.00 80 1020.6
20260830151535 79 109 0.0 0.0 0.00 0.00 0.00 83 1020.6
20260830144530 77 150 0.0 3.0 0.00 0.00 0.00 87 1020.4
20260830143024 75 138 0.0 3.0 0.00 0.00 0.00 88 1020.2
20260830141519 74 103 0.0 3.0 0.00 0.00 0.00 91 1020.2
20260830140015 72 120 0.0 1.0 0.00 0.00 0.00 91 1019.9
20260830134516 71 148 0.0 2.0 0.00 0.00 0.00 92 1019.9
20260830133007 69 138 0.0 0.0 0.00 0.00 0.00 92 1019.8
20260830131503 68 271 0.0 0.0 0.00 0.00 0.00 92 1019.8
20260830130001 67 276 0.0 0.0 0.00 0.00 0.00 92 1019.8
20260830124605 66 276 0.0 0.0 0.00 0.00 0.00 92 1019.8
20260830123059 65 275 0.0 0.0 0.00 0.00 0.00 92 1019.7
20260830121601 64 271 0.0 0.0 0.00 0.00 0.00 92 1019.6
20260830120058 64 270 0.0 0.0 0.00 0.00 0.00 92 1019.4
20260830114608 64 270 0.0 0.0 0.00 0.00 0.00 92 1019.4
20260830113100 64 270 0.0 0.0 0.00 0.00 0.00 92 1019.5
20260830111556 64 270 0.0 0.0 0.00 0.00 0.00 92 1019.2
20260830110057 64 270 0.0 0.0 0.00 0.00 0.00 92 1019.1
20260830104554 64 270 0.0 0.0 0.00 0.00 0.00 92 1019.1
20260830103055 64 270 0.0 0.0 0.00 0.00 0.00 92 1018.9